AirNav  
 
 825 users online  

4WN4 River Ridge Aero Estates Airport
Holcombe, Wisconsin, USA

GOING TO HOLCOMBE?


FAA INFORMATION EFFECTIVE 09 NOVEMBER 2017

Location

FAA Identifier: 4WN4
Lat/Long: 45-17-38.6738N / 091-13-58.5360W
45-17.644563N / 091-13.975600W
45.2940761 / -91.2329267
(estimated)
Elevation: 1050 ft. / 320 m (estimated)
Variation: 00E (2000)
From city: 8 miles NW of HOLCOMBE, WI
Time zone: UTC -6 (UTC -5 during Daylight Saving Time)
Zip code: 54745

Airport Operations

Airport use: Private use. Permission required prior to landing
Activation date: 06/2002
Control tower: no
ARTCC: MINNEAPOLIS CENTER
FSS: GREEN BAY FLIGHT SERVICE STATION
Attendance: UNATNDD
Wind indicator: yes
Segmented circle: no

Airport Communications

WX AWOS-3 at RCX (16 nm NE): 118.125 (715-532-2665)
WX AWOS-3P at Y23 (17 nm W): 119.05 (715-924-1836)

Nearby radio navigation aids

VOR radial/distance  VOR name  Freq  Var
EAUr020/26.0EAU CLAIRE VORTAC112.9004E

 
NDB name  Hdg/Dist  Freq  Var  ID
RUSK COUNTY218/15.835600WRCX .-. -.-. -..-

Airport Services

Runway Information

Runway 8/26

Dimensions: 3100 x 100 ft. / 945 x 30 m
Surface: turf
RUNWAY 8  RUNWAY 26
Traffic pattern: leftright
Displaced threshold: no1000 ft.
RY 26 DSPLCD THLD MARKED WITH TIRES.
Obstructions: none
50 FT OBSTACLE 1000 FT EAST
50 ft. trees
50 FT OBSTACLE 1000 FT EAST.

Runway 18/36

Dimensions: 2000 x 100 ft. / 610 x 30 m
Surface: turf
RUNWAY 18  RUNWAY 36
Traffic pattern: leftleft
Obstructions: 50 ft. trees50 ft. trees

Runway 9W/27W

Dimensions: 6000 x 600 ft. / 1829 x 183 m
Surface: water
RUNWAY 9W  RUNWAY 27W
Traffic pattern: leftleft

Airport Ownership and Management from official FAA records

Ownership: Privately-owned
Owner: MICHAEL AND FRED KLEINHEINZ
W10765 COUNTY HWY D
HOLCOMBE, WI 54745
Phone 715-595-6665
Manager: MICHAEL AND FRED KLEINHEINZ
W10765 COUNTY HWY D
HOLCOMBE, WI 54745
Phone 715-595-6665

Additional Remarks

A52-09W RY 09W/27W - UNDERWATER OBSTACLES EXIST. CONTACT THE OWNERS AT 715-595-6665 PRIOR TO USING THE SEALANE.

Instrument Procedures

There are no published instrument procedures at 4WN4.

Some nearby airports with instrument procedures:

KRCX - Rusk County Airport (16 nm NE)
Y23 - Chetek Municipal-Southworth Airport (17 nm W)
KRPD - Rice Lake Regional Airport - Carl's Field (24 nm W)
KEAU - Chippewa Valley Regional Airport (28 nm SW)
KUBE - Cumberland Municipal Airport (34 nm W)
 
Loc | Ops | Rwys | IFR | FBO | Links
Com | Nav | Svcs | Stats | Notes


 
Area around 4WN4 (River Ridge Aero Estates Airport)
 
Road maps at: MapQuest Bing Google
 
Aerial photo
No photo
 
Sectional chart

 
Airport distance calculator
Flying to River Ridge Aero Estates Airport? Find the distance to fly.

From to 4WN4

Sunrise and sunset
Times for 21-Nov-2017
 Local
(UTC-6)
 Zulu
(UTC)
Morning civil twilight06:4012:40
Sunrise07:1313:13
Sunset16:2922:29
Evening civil twilight17:0223:02

Current date and time
Zulu (UTC)  22-Nov-2017 03:02:11
Local (UTC-6)  21-Nov-2017 21:02:11
 
METAR
KRCX 
16nm NE 
220300Z AUTO 31012G22KT 10SM CLR M07/M12 A3022 RMK AO2 T10691119
KY23 
17nm W 
220255Z AUTO 35008KT 320V020 10SM CLR M06/M11 A3023 RMK AO2 T10621112
KRPD 
23nm NW 
220255Z AUTO 33010G16KT 10SM CLR M07/M12 A3025 RMK AO2 T10671119
KEAU 
27nm S 
220256Z AUTO 32009KT 10SM CLR M06/M12 A3022 RMK AO2 SLP250 T10561122 51018
TAF
KEAU 
27nm S 
212209Z 2122/2218 31014KT P6SM SKC FM220100 31009KT P6SM SKC FM220700 30004KT P6SM FEW250 FM221400 24004KT P6SM SKC
NOTAMs
Click for the latest NOTAMs
NOTAMs are issued by the DoD/FAA and will open in a separate window not controlled by AirNav.

 

 
 

Would you like to see your business listed on this page?

 If your business provides an interesting product or service to pilots, flight crews, aircraft, or users of the River Ridge Aero Estates Airport, you should consider listing it here.  To start the listing process, click on the button below
 
Add a business
 

Other Pages about River Ridge Aero Estates Airport

Update a link
 
Copyright © AirNav, LLC. All rights reserved. Privacy Policy  Contact